Weather History for Indiana, PA

Change the Weather History Date:

Tuesday, February 7, 2012

  Actual Average Record
Temperature  
Mean Temperature 32 °F -  
Max Temperature 37 °F 34 °F 55 °F (2005)
Min Temperature 26 °F 17 °F -4 °F (1988)
Degree Days  
Heating Degree Days 34    
Moisture  
Dew Point 28 °F    
Average Humidity 84    
Maximum Humidity 100    
Minimum Humidity 70    
Precipitation  
Precipitation 0.00 in - - ()
Sea Level Pressure  
Sea Level Pressure 30.15 in    
Wind  
Wind Speed 3 mph (WNW)    
Max Wind Speed 8 mph    
Max Gust Speed -    
Visibility 10 miles    
Events      
Averages and records for this station are not official NWS values.
T = Trace of Precipitation, MM = Missing Value Source: NWS Daily Summary

Daily Weather History Graph

Daily Weather History Graph

Search for Another Location

Airport:

Trip Planner

Search our weather history database for the weather conditions in past years. The results will help you decide how hot, cold, wet, or windy it might be!

Date:

Astronomy

Feb. 07, 2012 Rise Set
Actual Time 7:20 AM EST 5:41 PM EST
Civil Twilight 6:52 AM EST 6:09 PM EST
Nautical Twilight 6:19 AM EST 6:42 PM EST
Astronomical Twilight 5:47 AM EST 7:13 PM EST
Moon 5:50 PM EST (2/7) 6:48 AM EST (2/7)
Length of Visible Light 11h 17m
Length of Day
10h 20m
Full, 100% of the Moon is Illuminated
Feb 7
Full
Feb 7
Full
Feb 14
Last Quarter
Feb 21
New
Feb 29
First Quarter

Hourly Weather History & Observations

Time (EST) Temp. Windchill Dew Point Humidity Pressure Visibility Wind Dir Wind Speed Gust Speed Precip Events Conditions
12:15 AM 30.2 °F - 24.8 °F 80% 30.08 in 10.0 mi Calm Calm - N/A   Clear
12:35 AM 30.2 °F - 24.8 °F 80% 30.08 in 10.0 mi Calm Calm - N/A   Clear
12:55 AM 30.2 °F - 24.8 °F 80% 30.09 in 10.0 mi Calm Calm - N/A   Clear
1:15 AM 30.2 °F 26.7 °F 24.8 °F 80% 30.09 in 10.0 mi WSW 3.5 mph - N/A   Clear
1:35 AM 28.4 °F 24.6 °F 24.8 °F 86% 30.09 in 10.0 mi WSW 3.5 mph - N/A   Clear
1:55 AM 28.4 °F 23.3 °F 24.8 °F 86% 30.09 in 10.0 mi WSW 4.6 mph - N/A   Clear
2:15 AM 28.4 °F 22.2 °F 24.8 °F 86% 30.10 in 10.0 mi WSW 5.8 mph - N/A   Clear
2:35 AM 28.4 °F 22.2 °F 24.8 °F 86% 30.10 in 10.0 mi WSW 5.8 mph - N/A   Clear
2:55 AM 28.4 °F 22.2 °F 26.6 °F 93% 30.10 in 10.0 mi WSW 5.8 mph - N/A   Clear
3:15 AM 28.4 °F 22.2 °F 26.6 °F 93% 30.10 in 10.0 mi WSW 5.8 mph - N/A   Clear
3:35 AM 28.4 °F 22.2 °F 26.6 °F 93% 30.10 in 10.0 mi WSW 5.8 mph - N/A   Clear
3:55 AM 28.4 °F 24.6 °F 26.6 °F 93% 30.10 in 10.0 mi WSW 3.5 mph - N/A   Scattered Clouds
4:15 AM 28.4 °F - 26.6 °F 93% 30.10 in 10.0 mi Calm Calm - N/A   Scattered Clouds
4:35 AM 28.4 °F - 26.6 °F 93% 30.10 in 10.0 mi Calm Calm - N/A   Clear
4:55 AM 28.4 °F - 26.6 °F 93% 30.10 in 10.0 mi Calm Calm - N/A   Clear
5:15 AM 26.6 °F - 26.6 °F 100% 30.09 in 10.0 mi Calm Calm - N/A   Scattered Clouds
5:35 AM 26.6 °F - 26.6 °F 100% 30.08 in 10.0 mi Calm Calm - N/A   Scattered Clouds
5:55 AM 26.6 °F - 26.6 °F 100% 30.08 in 10.0 mi Calm Calm - N/A   Mostly Cloudy
6:15 AM 26.6 °F - 26.6 °F 100% 30.10 in 10.0 mi Calm Calm - N/A   Overcast
6:35 AM 26.6 °F 22.6 °F 26.6 °F 100% 30.11 in 10.0 mi WSW 3.5 mph - N/A   Overcast
6:55 AM 28.4 °F 23.3 °F 28.4 °F 100% 30.13 in 10.0 mi West 4.6 mph - N/A   Unknown
7:15 AM 30.2 °F 25.4 °F 28.4 °F 93% 30.15 in 10.0 mi West 4.6 mph - N/A   Unknown
7:35 AM 30.2 °F 25.4 °F 28.4 °F 93% 30.15 in 10.0 mi WNW 4.6 mph - N/A   Unknown
7:55 AM 32.0 °F 25.6 °F 30.2 °F 93% 30.16 in 10.0 mi WNW 6.9 mph - N/A   Unknown
8:15 AM 32.0 °F 25.6 °F 30.2 °F 93% 30.17 in 10.0 mi WNW 6.9 mph - N/A   Unknown
8:35 AM 32.0 °F 24.8 °F 30.2 °F 93% 30.17 in 10.0 mi WNW 8.1 mph - N/A   Unknown
8:55 AM 32.0 °F 26.4 °F 30.2 °F 93% 30.18 in 10.0 mi West 5.8 mph - N/A   Unknown
9:15 AM 32.0 °F 25.6 °F 30.2 °F 93% 30.19 in 10.0 mi WNW 6.9 mph - N/A   Unknown
9:35 AM 33.8 °F 28.6 °F 30.2 °F 87% 30.19 in 10.0 mi West 5.8 mph - N/A   Unknown
9:55 AM 33.8 °F 28.6 °F 30.2 °F 87% 30.19 in 10.0 mi NW 5.8 mph - N/A   Unknown
10:15 AM 33.8 °F 29.6 °F 30.2 °F 87% 30.19 in 10.0 mi NW 4.6 mph - N/A   Unknown
10:35 AM 33.8 °F 29.6 °F 30.2 °F 87% 30.19 in 10.0 mi WNW 4.6 mph - N/A   Unknown
10:55 AM 33.8 °F - 30.2 °F 87% 30.19 in 10.0 mi Calm Calm - N/A   Unknown
11:15 AM 33.8 °F 27.0 °F 30.2 °F 87% 30.19 in 10.0 mi WNW 8.1 mph - N/A   Unknown
11:35 AM 33.8 °F 28.6 °F 28.4 °F 81% 30.19 in 10.0 mi NW 5.8 mph - N/A   Unknown
11:55 AM 33.8 °F 28.6 °F 30.2 °F 87% 30.19 in 10.0 mi NNW 5.8 mph - N/A   Unknown
12:15 PM 33.8 °F 30.8 °F 30.2 °F 87% 30.18 in 10.0 mi North 3.5 mph - N/A   Unknown
12:35 PM 33.8 °F 28.6 °F 28.4 °F 81% 30.18 in 10.0 mi WNW 5.8 mph - N/A   Unknown
12:55 PM 35.6 °F 30.7 °F 28.4 °F 75% 30.17 in 10.0 mi WNW 5.8 mph - N/A   Unknown
1:15 PM 35.6 °F - 28.4 °F 75% 30.16 in 10.0 mi Calm Calm - N/A   Unknown
1:35 PM 35.6 °F 32.8 °F 28.4 °F 75% 30.16 in 10.0 mi West 3.5 mph - N/A   Unknown
1:55 PM 35.6 °F 31.7 °F 28.4 °F 75% 30.16 in 10.0 mi NNW 4.6 mph - N/A   Unknown
2:15 PM 37.4 °F 31.4 °F 28.4 °F 70% 30.17 in 10.0 mi NW 8.1 mph - N/A   Overcast
2:35 PM 37.4 °F - 28.4 °F 70% 30.17 in 10.0 mi Calm Calm - N/A   Overcast
2:55 PM 37.4 °F - 28.4 °F 70% 30.17 in 10.0 mi Calm Calm - N/A   Overcast
3:15 PM 37.4 °F - 28.4 °F 70% 30.17 in 10.0 mi Calm Calm - N/A   Overcast
3:35 PM 37.4 °F - 28.4 °F 70% 30.17 in 10.0 mi Calm Calm - N/A   Overcast
3:55 PM 37.4 °F 34.9 °F 28.4 °F 70% 30.18 in 10.0 mi West 3.5 mph - N/A   Overcast
4:15 PM 37.4 °F - 28.4 °F 70% 30.18 in 10.0 mi Calm Calm - N/A   Overcast
4:35 PM 37.4 °F - 28.4 °F 70% 30.18 in 10.0 mi Calm Calm - N/A   Unknown
4:55 PM 37.4 °F - 28.4 °F 70% 30.19 in 10.0 mi Calm Calm - N/A   Unknown
5:15 PM 37.4 °F - 28.4 °F 70% 30.20 in 10.0 mi Calm Calm - N/A   Unknown
5:35 PM 37.4 °F 34.9 °F 30.2 °F 75% 30.20 in 10.0 mi North 3.5 mph - N/A   Unknown
5:55 PM 35.6 °F 32.8 °F 30.2 °F 81% 30.20 in 10.0 mi North 3.5 mph - N/A   Unknown
6:15 PM 35.6 °F 31.7 °F 30.2 °F 81% 30.21 in 10.0 mi North 4.6 mph - N/A   Unknown
6:35 PM 35.6 °F 32.8 °F 30.2 °F 81% 30.21 in 10.0 mi NNE 3.5 mph - N/A   Unknown
6:55 PM 35.6 °F - 30.2 °F 81% 30.21 in 10.0 mi Calm Calm - N/A   Unknown
7:15 PM 33.8 °F - 30.2 °F 87% 30.22 in 10.0 mi Calm Calm - N/A   Unknown
7:35 PM 33.8 °F - 30.2 °F 87% 30.22 in 10.0 mi Calm Calm - N/A   Unknown
7:55 PM 33.8 °F - 30.2 °F 87% 30.22 in 10.0 mi Calm Calm - N/A   Unknown
8:15 PM 33.8 °F - 30.2 °F 87% 30.22 in 10.0 mi Calm Calm - N/A   Unknown
8:35 PM 33.8 °F - 30.2 °F 87% 30.22 in 10.0 mi Calm Calm - N/A   Unknown
8:55 PM 33.8 °F - 30.2 °F 87% 30.22 in 10.0 mi Calm Calm - N/A   Unknown
9:15 PM 33.8 °F - 30.2 °F 87% 30.22 in 10.0 mi Calm Calm - N/A   Unknown
9:35 PM 33.8 °F - 28.4 °F 81% 30.22 in 10.0 mi Calm Calm - N/A   Unknown
9:55 PM 33.8 °F - 28.4 °F 81% 30.22 in 10.0 mi Calm Calm - N/A   Unknown
10:15 PM 33.8 °F - 28.4 °F 81% 30.23 in 10.0 mi Calm Calm - N/A   Unknown
10:35 PM 33.8 °F - 28.4 °F 81% 30.23 in 10.0 mi Calm Calm - N/A   Unknown
10:55 PM 33.8 °F - 28.4 °F 81% 30.22 in 10.0 mi Calm Calm - N/A   Unknown
11:15 PM 33.8 °F - 28.4 °F 81% 30.23 in 10.0 mi Calm Calm - N/A   Unknown
11:35 PM 33.8 °F - 28.4 °F 81% 30.23 in 10.0 mi Calm Calm - N/A   Unknown
11:55 PM 30.2 °F - 28.4 °F 93% 30.22 in 10.0 mi Calm Calm - N/A   Unknown